Location: Nantong Television Tower
(32.0188°N, 120.8512°E)
Time: 08:10:03
(UTC+08:00)

Daily predictions for brighter satellites

Satellite Brightness Start Highest point End
(mag) Time Altitude Azimuth Time Altitude Azimuth Time Altitude Azimuth
Cosmos 468 Rocket 4.0 17:09:11 10° NNW 17:14:22 87° ENE 17:19:28 10° SSE
Cosmos 2233 Rocket 4.0 17:10:54 10° S 17:17:09 79° E 17:23:23 10° N
COSMOS 2455 4.2 17:13:11 10° SW 17:18:45 39° WNW 17:24:23 10° N
YAOGAN 1 3.5 17:15:12 10° SE 17:18:48 26° ENE 17:22:25 10° NNE
USA 116 3.9 17:17:16 10° NNE 17:21:25 53° E 17:25:02 10° S
COSMO-SKYMED 1 3.4 17:19:43 10° NE 17:23:33 30° E 17:27:21 10° SSE
CZ-2C R/B 3.9 17:19:20 10° S 17:23:59 43° W 17:28:50 10° NNW
Cosmos 1763 Rocket 3.4 17:26:50 10° NNW 17:32:01 71° ENE 17:37:05 10° SSE
Cosmos 2221 Rocket 4.0 17:32:44 10° SSE 17:36:51 41° E 17:40:59 10° NNE
OAO 3 Rocket 3.6 17:32:10 10° SW 17:36:56 54° SSE 17:41:12 13° E
CSL-04 Rocket 3.9 17:32:28 10° S 17:37:44 73° WSW 17:43:03 10° NNW
Cosmos 1703 Rocket 3.5 17:35:26 10° S 17:39:54 78° E 17:44:22 10° N
Cosmos 1633 3.1 17:36:52 10° NNE 17:40:16 35° E 17:43:38 10° SSE
METEOR-M 4.4 17:36:41 10° SE 17:41:42 44° ENE 17:46:44 10° N
Meteor 2-6 Rocket 4.3 17:36:57 10° SSE 17:42:07 49° E 17:47:25 10° NNE
Cosmos 2082 Rocket 2.8 17:41:32 10° N 17:46:35 32° ENE 17:51:34 10° SE
Cosmos 1814 Rocket 4.4 17:42:44 10° NNW 17:48:04 71° WSW 17:53:22 10° S
CZ-2C R/B 4.3 17:46:53 10° N 17:51:20 60° WNW 17:55:50 10° SSW
Meteor 1-20 Rocket 4.1 17:46:43 10° N 17:52:15 80° E 17:57:42 10° S
CZ-4C R/B 4.1 17:47:51 10° N 17:53:01 20° NE 17:55:42 17° ENE
Cosmos 1503 Rocket 4.0 17:47:54 10° SSW 17:53:11 89° WNW 17:58:27 10° NNE
Cosmos 304 Rocket 4.1 17:48:43 10° NNW 17:53:30 69° WSW 17:58:14 10° S
SKYMED 3 4.5 17:49:16 10° NNE 17:53:36 72° E 17:57:55 10° S
Meteor 1-25 Rocket 4.3 17:47:56 10° N 17:53:48 89° W 17:59:34 10° S
ERBS 3.0 17:51:52 10° NW 17:55:12 56° SW 17:58:33 10° SSE
OAO 3 Copernicus 4.3 17:50:18 10° WNW 17:55:22 70° N 17:58:55 20° E
Cosmos 968 Rocket 4.1 17:50:52 10° SSE 17:55:26 33° E 17:58:55 16° NE
Ariane Rocket 3.9 17:51:00 10° S 17:55:56 52° W 18:00:54 10° NNW
Cosmos 540 Rocket 3.8 17:52:21 10° N 17:57:15 42° ENE 18:02:07 10° SE
Cosmos 1891 Rocket 4.5 17:53:29 10° S 17:59:35 61° E 18:05:34 10° NNE
Okean 2 Rocket 3.6 17:56:05 10° NNE 18:00:18 38° E 18:04:29 10° SSE
Cosmos 841 Rocket 3.8 18:02:44 10° NNW 18:07:58 70° WSW 18:13:10 10° S
Atlas 2A Centaur Rocket 3.8 17:48:06 10° WSW 18:09:58 59° S 18:13:15 22° ESE
Cosmos 1908 Rocket 4.5 18:06:01 10° NNW 18:10:12 49° W 18:14:22 10° SSW
SKYMED 2 3.9 18:07:19 10° N 18:11:38 67° WNW 18:15:55 10° SSW
DMSP B5D1-3 4.5 18:07:33 10° NNE 18:12:42 67° ESE 18:17:47 10° S
Meteor 1-27 Rocket 3.8 18:07:14 10° S 18:12:59 60° E 18:18:50 10° NNE
Cosmos 44 4.0 18:09:37 10° N 18:13:49 30° ENE 18:14:09 30° ENE
Chunghua 1 4.4 18:10:54 10° WNW 18:14:36 82° SSW 18:15:56 37° ESE
IUS-13 SRM-1 2.9 18:14:13 10° WSW 18:15:56 27° S 18:16:33 24° SSE
Cosmos 1606 4.4 18:14:09 10° SW 18:17:36 33° W 18:21:03 10° NNW
Cosmos 1441 Rocket 3.1 18:13:48 10° S 18:17:44 75° E 18:20:25 20° NNE
CZ-4 R/B 3.2 18:14:23 10° SSW 18:17:54 32° W 18:21:23 10° NNW
Cosmos 2034 Rocket 3.9 18:14:48 10° S 18:21:10 80° E 18:27:32 10° N
ALOS 2.2 18:16:47 10° SSE 18:21:23 65° ENE 18:26:01 10° N
Nadezhda 4 Rocket 4.2 18:15:40 10° N 18:21:25 42° E 18:27:09 10° SSE
FENGYUN 3A 3.6 18:17:29 10° SSE 18:22:50 65° ENE 18:28:11 10° N
SPOT 3 Rocket 3.6 18:30:16 10° S 18:35:29 79° WSW 18:40:43 10° NNW
Meteor 2-20 4.3 18:30:29 10° N 18:36:34 74° E 18:42:36 10° SSE
Tiangong 1 2.7 18:34:18 10° WSW 18:35:44 28° W 18:35:44 28° W
Cosmos 2369 Rocket 3.2 18:32:55 10° SSE 18:36:30 29° SE 18:36:30 29° SE
ISS -1.4 18:37:18 10° S 18:38:05 15° S 18:38:05 15° S
Cosmos 1833 Rocket 2.7 18:35:56 10° NNW 18:41:34 79° WSW 18:47:10 10° SSE
USA 234 3.9 18:39:46 19° NNE 18:44:14 49° NW 18:50:28 10° WSW
GPS 2-05 Rocket1 4.0 18:41:07 10° W 18:43:17 36° WNW 18:43:17 36° WNW
ERS-2 4.4 18:42:52 10° SSW 18:46:00 26° W 18:49:08 10° NW
BREEZE-M DEB (TANK) 3.6 18:43:36 10° WNW 18:48:08 34° SW 18:49:06 28° SSW
Cosmos 1602 4.3 18:45:04 10° NNW 18:48:50 56° W 18:52:36 10° S
BREEZE-M R/B 3.0 18:46:32 10° NW 18:49:57 82° NE 18:50:01 82° ENE
Meteor 1-11 Rocket 3.8 18:52:18 10° N 18:58:07 78° W 19:03:47 10° S
Cosmos 1943 Rocket 4.3 19:03:15 10° S 19:03:52 13° SSE 19:03:52 13° SSE
Thor Agena Rocket 4.0 19:11:43 45° NNW 19:12:53 56° WNW 19:17:54 10° SSW
OAO 3 Rocket 4.2 19:15:34 10° W 19:19:01 44° WNW 19:19:01 44° WNW
Cosmos 2082 Rocket 4.1 19:25:46 10° NW 19:30:28 27° WSW 19:35:08 10° SSW
USA 229 DEB 4.1 19:25:14 10° SW 19:31:49 57° WNW 19:32:42 53° NNW
USA 229 4.1 19:25:20 10° SW 19:31:55 57° WNW 19:32:45 54° NNW
CZ-4C R/B 3.1 19:34:51 10° NNW 19:40:59 65° NNW 19:40:59 65° NNW
